Location: Newark
(40.6500°N, 120.5800°W)
Time: 17:02:17
(UTC+00:00)

ISS - Visible Passes

Search period start: 17 July 2019 00:00
Search period end: 27 July 2019 00:00
Orbit: 409 x 418 km, 51.6° (Epoch: 18 July)

Date Brightness Start Highest point End Pass type
(mag) Time Alt. Az. Time Alt. Az. Time Alt. Az.
17 Jul -3.4 04:46:54 10° SSW 04:50:03 41° SE 04:53:14 10° ENE visible
17 Jul -1.6 06:23:54 10° W 06:26:50 27° NNW 06:29:45 10° NE visible
17 Jul -0.3 08:02:44 10° NW 08:04:22 13° N 08:05:59 10° NNE visible
17 Jul -0.7 09:39:52 10° NNW 09:42:05 16° NNE 09:44:18 10° ENE visible
17 Jul -3.3 11:15:59 10° NW 11:19:17 62° NNE 11:22:34 10° ESE visible
18 Jul -2.6 03:58:10 10° S 04:00:53 23° SE 04:03:36 10° E visible
18 Jul -2.4 05:34:14 10° WSW 05:37:26 41° NNW 05:40:37 10° NE visible
18 Jul -0.5 07:12:51 10° NW 07:14:47 14° N 07:16:42 10° NNE visible
18 Jul -0.5 08:50:41 10° NNW 08:52:32 14° N 08:54:23 10° NE visible
18 Jul -2.3 10:26:48 10° NW 10:29:56 38° NNE 10:33:03 10° E visible
18 Jul -2.7 12:03:42 10° WNW 12:06:29 25° SW 12:09:16 10° SSE visible
19 Jul -3.5 04:44:44 10° WSW 04:48:04 69° NW 04:51:24 10° NE visible
19 Jul -0.7 06:22:55 10° WNW 06:25:14 17° NNW 06:27:32 10° NNE visible
19 Jul -0.3 08:01:21 10° NNW 08:02:56 13° N 08:04:31 10° NNE visible
19 Jul -1.5 09:37:38 10° NW 09:40:30 26° NNE 09:43:21 10° E visible
19 Jul -3.6 11:14:07 10° WNW 11:17:18 46° SW 11:20:29 10° SSE visible
20 Jul -1.1 05:33:01 10° WNW 05:35:42 22° NNW 05:38:23 10° NNE visible
20 Jul -0.4 07:11:48 10° NNW 07:13:20 13° N 07:14:51 10° NNE visible
20 Jul -1.0 08:48:29 10° NNW 08:51:00 19° NNE 08:51:08 19° NNE visible
20 Jul-0.410:33:21SE10:33:21SE10:23:44NWvisible
21 Jul -1.7 04:43:12 10° W 04:46:13 30° NNW 04:49:14 10° NE visible
21 Jul -0.5 06:22:00 10° NW 06:23:42 13° N 06:25:25 10° NNE visible
21 Jul -0.8 07:59:19 10° NNW 08:01:27 16° NNE 08:01:41 16° NNE visible
22 Jul -2.5 03:53:32 10° WSW 03:56:47 46° NNW 04:00:01 10° NE visible
22 Jul -0.6 05:32:03 10° NW 05:34:05 15° NNW 05:36:07 10° NNE visible
22 Jul -0.6 07:10:03 10° NNW 07:11:50 14° N 07:13:14 11° NE visible
23 Jul -0.8 04:42:04 10° WNW 04:44:30 18° NNW 04:46:55 10° NNE visible
23 Jul -0.6 06:20:37 10° NNW 06:22:11 13° N 06:23:46 10° NNE visible
23 Jul -0.7 07:57:00 10° NNW 07:57:51 15° NNW 07:57:51 15° NNW visible
24 Jul -1.2 03:52:09 10° W 03:54:56 24° NNW 03:57:43 10° NNE visible
24 Jul -0.7 05:30:57 10° NNW 05:32:32 13° N 05:34:06 10° NNE visible
24 Jul -1.0 07:07:48 10° NNW 07:09:49 18° N 07:09:49 18° N visible
25 Jul -0.8 04:41:03 10° NW 04:42:52 14° N 04:44:39 10° NNE visible
25 Jul -1.0 06:18:34 10° NNW 06:20:36 15° NNE 06:21:51 13° NE visible
26 Jul -0.8 05:29:14 10° NNW 05:30:56 13° N 05:32:39 10° NE visible
26 Jul -1.0 07:05:25 10° NW 07:06:43 19° NNW 07:06:43 19° NNW visible
